Tracking 17925 objects as of 22-January-2017
HD Live streaming from Space Station
objects crossing your sky now

DELTA 2 DEB

Track DELTA 2 DEB now!
10-day predictions


NORAD ID: 27765
Int'l Code: 2000-040D
Perigee: 179.2 km
Apogee: 3,174.6 km
Inclination: 38.8 °
Period: 119.8 minutes
Semi major axis: 8047 km
RCS: 0.0144 m2 (small)
Launch date: July 16, 2000
Source: United States (US)
Launch site: AIR FORCE EASTERN TEST RANGE (AFETR)

Note: This is SATELLITE DEBRIS
Your satellite tracking list
Your tracking list is empty





NASA's NSSDC Master Catalog

Two Line Element Set (TLE):
1 27765U 00040D   17022.20434294  .00159581  28935-5  30483-3 0  9993
2 27765  38.8389  25.2333 1861021 137.2028 238.9628 12.02486922411031
Source of the keplerian elements: AFSPC